Hourly Weather Ludlow

Today, 16 June, Wednesday

Time Temperature Precipitation Wind Pressure Humidity
00:00 +13°C° 0 mm 1 mps 714 mmHg 96%
01:00 +12°C° 0 mm 1 mps 714 mmHg 97%
02:00 +11°C° 0 mm 1 mps 714 mmHg 97%
03:00 +10°C° 0 mm 1 mps 714 mmHg 97%
04:00 +9°C° 0 mm 1 mps 714 mmHg 97%
05:00 +9°C° 0 mm 2 mps 715 mmHg 87%
06:00 +12°C° 0 mm 2 mps 715 mmHg 78%
07:00 +12°C° 0 mm 2 mps 716 mmHg 67%
08:00 +13°C° 0 mm 3 mps 716 mmHg 57%
09:00 +14°C° 0 mm 4 mps 716 mmHg 47%
10:00 +17°C° 0 mm 4 mps 716 mmHg 37%
11:00 +18°C° 0 mm 4 mps 716 mmHg 35%
12:00 +19°C° 0 mm 4 mps 716 mmHg 34%
13:00 +19°C° 0 mm 4 mps 716 mmHg 33%
14:00 +20°C° 0 mm 4 mps 716 mmHg 33%
15:00 +20°C° 0 mm 4 mps 716 mmHg 33%
16:00 +20°C° 0 mm 4 mps 716 mmHg 32%
17:00 +18°C° 0 mm 3 mps 716 mmHg 43%
18:00 +16°C° 0 mm 2 mps 716 mmHg 53%
19:00 +14°C° 0 mm 1 mps 717 mmHg 63%
20:00 +13°C° 0 mm 1 mps 717 mmHg 63%
21:00 +13°C° 0 mm 1 mps 717 mmHg 63%
22:00 +12°C° 0 mm 1 mps 718 mmHg 63%
23:00 +11°C° 0 mm 1 mps 718 mmHg 67%

Tomorrow, 17 June, Thursday

Time Temperature Precipitation Wind Pressure Humidity
00:00 +10°C° 0 mm 1 mps 718 mmHg 72%
01:00 +9°C° 0 mm 1 mps 718 mmHg 76%
02:00 +8°C° 0 mm 1 mps 718 mmHg 76%
03:00 +8°C° 0 mm 1 mps 718 mmHg 76%
04:00 +7°C° 0 mm 1 mps 718 mmHg 76%
05:00 +10°C° 0 mm 1 mps 718 mmHg 68%
06:00 +12°C° 0 mm 1 mps 718 mmHg 60%
07:00 +14°C° 0 mm 1 mps 719 mmHg 52%
08:00 +16°C° 0 mm 2 mps 719 mmHg 46%
09:00 +18°C° 0 mm 3 mps 719 mmHg 39%
10:00 +19°C° 0 mm 3 mps 719 mmHg 33%
11:00 +20°C° 0 mm 3 mps 719 mmHg 31%
12:00 +21°C° 0 mm 3 mps 719 mmHg 29%
13:00 +22°C° 0 mm 3 mps 719 mmHg 27%
14:00 +22°C° 0 mm 3 mps 719 mmHg 27%
15:00 +22°C° 0 mm 3 mps 719 mmHg 26%
16:00 +22°C° 0 mm 3 mps 719 mmHg 25%
17:00 +20°C° 0 mm 2 mps 719 mmHg 38%
18:00 +18°C° 0 mm 2 mps 719 mmHg 52%
19:00 +15°C° 0 mm 1 mps 719 mmHg 65%
20:00 +14°C° 0 mm 1 mps 719 mmHg 70%
21:00 +13°C° 0 mm 1 mps 720 mmHg 74%
22:00 +11°C° 0 mm 1 mps 720 mmHg 79%
23:00 +11°C° 0 mm 1 mps 720 mmHg 79%

Day after tomorrow, 18 June, Friday

Time Temperature Precipitation Wind Pressure Humidity
00:00 +10°C° 0 mm 1 mps 720 mmHg 79%
01:00 +10°C° 0 mm 1 mps 720 mmHg 79%
02:00 +10°C° 0 mm 1 mps 720 mmHg 78%
03:00 +9°C° 0 mm 1 mps 720 mmHg 77%
04:00 +9°C° 0 mm 1 mps 720 mmHg 76%
05:00 +12°C° 0 mm 1 mps 721 mmHg 68%
06:00 +14°C° 0 mm 1 mps 721 mmHg 60%
07:00 +18°C° 0 mm 1 mps 721 mmHg 53%
08:00 +20°C° 0 mm 1 mps 721 mmHg 47%
09:00 +21°C° 0 mm 2 mps 721 mmHg 41%
10:00 +24°C° 0 mm 2 mps 721 mmHg 35%
11:00 +25°C° 0 mm 3 mps 721 mmHg 34%
12:00 +25°C° 0 mm 3 mps 720 mmHg 32%
13:00 +26°C° 0 mm 3 mps 720 mmHg 31%
14:00 +26°C° 0 mm 3 mps 720 mmHg 33%
15:00 +26°C° 0 mm 3 mps 719 mmHg 36%
16:00 +26°C° 0 mm 3 mps 719 mmHg 39%
17:00 +24°C° 0 mm 3 mps 718 mmHg 49%
18:00 +21°C° 0 mm 2 mps 718 mmHg 58%
19:00 +20°C° 0 mm 1 mps 718 mmHg 68%
20:00 +19°C° 0.1 mm 1 mps 718 mmHg 70%
21:00 +18°C° 0.1 mm 1 mps 717 mmHg 72%
22:00 +18°C° 0.1 mm 1 mps 717 mmHg 74%
23:00 +16°C° 0 mm 1 mps 717 mmHg 76%

19 June, Saturday

Time Temperature Precipitation Wind Pressure Humidity
00:00 +16°C° 0 mm 1 mps 716 mmHg 78%
01:00 +15°C° 0 mm 2 mps 716 mmHg 79%
02:00 +15°C° 1.4 mm 2 mps 716 mmHg 86%
03:00 +14°C° 1.4 mm 2 mps 715 mmHg 92%
04:00 +14°C° 1.4 mm 2 mps 715 mmHg 98%
05:00 +15°C° 0.1 mm 2 mps 715 mmHg 97%
06:00 +15°C° 0.1 mm 2 mps 714 mmHg 96%
07:00 +16°C° 0.1 mm 2 mps 714 mmHg 94%
08:00 +18°C° 0.3 mm 2 mps 714 mmHg 90%
09:00 +19°C° 0.3 mm 2 mps 714 mmHg 85%
10:00 +21°C° 0.3 mm 3 mps 714 mmHg 80%
11:00 +22°C° 0.1 mm 3 mps 713 mmHg 75%
12:00 +25°C° 0.1 mm 3 mps 713 mmHg 71%
13:00 +26°C° 0.1 mm 4 mps 713 mmHg 66%
14:00 +25°C° 0.5 mm 4 mps 712 mmHg 68%
15:00 +25°C° 0.5 mm 5 mps 712 mmHg 69%
16:00 +23°C° 0.5 mm 5 mps 712 mmHg 71%
17:00 +22°C° 0 mm 5 mps 712 mmHg 69%
18:00 +21°C° 0 mm 5 mps 712 mmHg 68%
19:00 +20°C° 0 mm 5 mps 713 mmHg 67%
20:00 +19°C° 0 mm 4 mps 713 mmHg 67%
21:00 +18°C° 0 mm 4 mps 713 mmHg 67%
22:00 +17°C° 0 mm 3 mps 713 mmHg 67%
23:00 +16°C° 0 mm 3 mps 713 mmHg 69%

20 June, Sunday

Time Temperature Precipitation Wind Pressure Humidity
00:00 +14°C° 0 mm 3 mps 713 mmHg 70%
01:00 +14°C° 0 mm 3 mps 713 mmHg 72%
02:00 +13°C° 0 mm 3 mps 713 mmHg 75%
03:00 +12°C° 0 mm 3 mps 713 mmHg 79%
04:00 +12°C° 0 mm 3 mps 713 mmHg 83%
05:00 +13°C° 0 mm 3 mps 714 mmHg 78%
06:00 +16°C° 0 mm 3 mps 714 mmHg 72%
07:00 +17°C° 0 mm 3 mps 714 mmHg 67%
08:00 +19°C° 0 mm 3 mps 715 mmHg 62%
09:00 +20°C° 0 mm 3 mps 715 mmHg 58%
10:00 +22°C° 0 mm 4 mps 715 mmHg 54%
11:00 +22°C° 0 mm 4 mps 715 mmHg 52%
12:00 +23°C° 0 mm 4 mps 715 mmHg 50%
13:00 +25°C° 0 mm 4 mps 715 mmHg 48%
14:00 +25°C° 0 mm 4 mps 715 mmHg 48%
15:00 +25°C° 0 mm 3 mps 715 mmHg 47%
16:00 +25°C° 0 mm 3 mps 715 mmHg 47%
17:00 +24°C° 0 mm 3 mps 715 mmHg 54%
18:00 +21°C° 0 mm 2 mps 716 mmHg 61%
19:00 +20°C° 0 mm 2 mps 716 mmHg 68%
20:00 +18°C° 0 mm 2 mps 716 mmHg 72%
21:00 +18°C° 0 mm 1 mps 716 mmHg 77%
22:00 +15°C° 0 mm 1 mps 716 mmHg 81%
23:00 +15°C° 0 mm 1 mps 716 mmHg 81%

21 June, Monday

Time Temperature Precipitation Wind Pressure Humidity
00:00 +14°C° 0 mm 1 mps 716 mmHg 81%
01:00 +14°C° 0 mm 1 mps 716 mmHg 81%
02:00 +13°C° 0 mm 1 mps 715 mmHg 80%
03:00 +13°C° 0 mm 1 mps 715 mmHg 80%
04:00 +13°C° 0 mm 1 mps 715 mmHg 79%
05:00 +15°C° 0 mm 1 mps 715 mmHg 73%
06:00 +18°C° 0 mm 1 mps 715 mmHg 67%
07:00 +20°C° 0 mm 1 mps 715 mmHg 61%
08:00 +23°C° 0 mm 2 mps 715 mmHg 57%
09:00 +25°C° 0 mm 2 mps 714 mmHg 52%
10:00 +28°C° 0 mm 3 mps 714 mmHg 47%
11:00 +28°C° 0.2 mm 3 mps 714 mmHg 53%
12:00 +28°C° 0.2 mm 4 mps 713 mmHg 60%
13:00 +28°C° 0.2 mm 4 mps 713 mmHg 66%
14:00 +28°C° 0.3 mm 4 mps 712 mmHg 66%
15:00 +28°C° 0.3 mm 4 mps 712 mmHg 65%
16:00 +28°C° 0.3 mm 4 mps 711 mmHg 65%
17:00 +26°C° 0.5 mm 3 mps 711 mmHg 75%
18:00 +25°C° 0.5 mm 3 mps 711 mmHg 84%
19:00 +22°C° 0.5 mm 3 mps 711 mmHg 94%
20:00 +21°C° 0.2 mm 2 mps 711 mmHg 95%
21:00 +20°C° 0.2 mm 2 mps 711 mmHg 96%
22:00 +20°C° 0.2 mm 2 mps 711 mmHg 98%
23:00 +19°C° 0 mm 2 mps 711 mmHg 98%
Show more

We Need Your Consent

Meteoprog and our Service Providers may store and access personal data such as cookies, device identifiers or other similar technologies on your device and process such data to personalise content and ads, as well as provide social media features and to analyse the traffic.

  • Store and/or access information on your device

    Cookies, device identifiers or other information can be stored or accessed on your device for the purposes indicated above.

  • Personalised ads and content, ad and content measurement, audience insights, and products development

    Ads and content can be personalised based on a profile. More data can be added to better personalise ads and content. Ad and content performance can be measured. Insights about the audience who saw the ads and content can be derived. Such data can be used to develop or improve user’s experience, systems and software.

By clicking ‘I Agree’ you will allow the use of indicated cookies, device identifiers, web beacons or other similar technologies. Your settings can be changed in the browser on your device.

For certain purposes, legitimate interests may be relied on, rather than consent. You can read more about this in our Privacy and Cookie Policy.